Sturgis, MI

8:11 AM EST on December 13, 2019 (GMT -0500)
Kirsch Municipal

Weather History for KIRS - October, 2019

Change the Weather History Date:

Tuesday, October 8, 2019

  Actual Average (KHAI) Record (KHAI)
Temperature  
Mean Temperature 56 °F -  
Max Temperature 69 °F 65 °F 87 °F (2007)
Min Temperature 44 °F 42 °F 25 °F (1952)
Degree Days  
Heating Degree Days 8    
Growing Degree Days 6 (Base 50)    
Moisture  
Dew Point 40 °F    
Average Humidity 61    
Maximum Humidity 89    
Minimum Humidity 27    
Precipitation  
Precipitation 0.00 in - - ()
Sea Level Pressure  
Sea Level Pressure 30.23 in    
Wind  
Wind Speed 2 mph ()    
Max Wind Speed 8 mph    
Max Gust Speed -    
Visibility 10.0 miles    
Events      
Averages and records for this station are not official NWS values.
T = Trace of Precipitation, MM = Missing Value Source: Averaged Metar Reports

Daily Weather History Graph

Daily Weather History Graph

Search for Another Location

Airport or City:

Astronomy

Oct. 08, 2019 Rise Set
Actual Time 7:45 AM EDT 7:11 PM EDT
Civil Twilight 7:18 AM EDT 7:39 PM EDT
Nautical Twilight 6:45 AM EDT 8:11 PM EDT
Astronomical Twilight 6:13 AM EDT 8:44 PM EDT
Moon 5:15 PM EDT (10/8) 2:28 AM EDT (10/8)
Length of Visible Light 12h 21m
Length of Day
11h 26m
Waxing Gibbous, 77% of the Moon is Illuminated
Oct 8
Waxing Gibbous
Oct 13
Full
Oct 21
Last Quarter
Oct 27
New
Nov 4
First Quarter

Hourly Weather History & Observations

Time (EDT) Temp. Windchill Dew Point Humidity Pressure Visibility Wind Dir Wind Speed Gust Speed Precip Events Conditions
12:19 AM 47.8 °F - 44.6 °F 89% 30.23 in 10.0 mi Calm Calm - N/A   Clear
12:37 AM 49.1 °F - 45.9 °F 89% 30.23 in 10.0 mi Calm Calm - N/A   Clear
12:55 AM 48.2 °F - 45.0 °F 89% 30.23 in 10.0 mi Calm Calm - N/A   Clear
12:56 AM 48.0 °F - 44.8 °F 89% 30.23 in 10.0 mi Calm Calm - N/A   Clear
1:15 AM 48.2 °F - 44.8 °F 88% 30.23 in 10.0 mi Calm Calm - N/A   Clear
1:35 AM 47.7 °F - 44.6 °F 89% 30.23 in 10.0 mi Calm Calm - N/A   Clear
1:58 AM 47.5 °F - 44.4 °F 89% 30.23 in 10.0 mi Calm Calm - N/A   Clear
2:16 AM 46.6 °F - 43.2 °F 88% 30.23 in 10.0 mi Calm Calm - N/A   Clear
2:35 AM 48.2 °F - 44.8 °F 88% 30.24 in 10.0 mi Calm Calm - N/A   Clear
2:55 AM 46.4 °F - 43.2 °F 88% 30.24 in 10.0 mi Calm Calm - N/A   Clear
3:19 AM 46.4 °F - 43.0 °F 88% 30.23 in 10.0 mi Calm Calm - N/A   Clear
3:37 AM 46.4 °F - 43.2 °F 88% 30.23 in 10.0 mi Calm Calm - N/A   Clear
3:55 AM 44.8 °F - 41.5 °F 88% 30.23 in 10.0 mi Calm Calm - N/A   Clear
4:15 AM 46.0 °F - 42.8 °F 88% 30.23 in 10.0 mi Calm Calm - N/A   Clear
4:35 AM 45.5 °F - 42.3 °F 88% 30.23 in 10.0 mi Calm Calm - N/A   Clear
4:39 AM 45.7 °F - 42.4 °F 88% 30.23 in 10.0 mi Calm Calm - N/A   Clear
4:58 AM 44.8 °F - 41.4 °F 88% 30.24 in 10.0 mi Calm Calm - N/A   Clear
5:16 AM 45.0 °F - 41.7 °F 88% 30.24 in 10.0 mi Calm Calm - N/A   Clear
5:35 AM 44.8 °F - 41.5 °F 88% 30.24 in 10.0 mi Calm Calm - N/A   Clear
5:55 AM 46.6 °F - 42.6 °F 86% 30.24 in 10.0 mi Calm Calm - N/A   Clear
5:56 AM 46.4 °F - 42.6 °F 87% 30.24 in 10.0 mi Calm Calm - N/A   Clear
6:19 AM 46.9 °F - 42.8 °F 86% 30.25 in 10.0 mi Calm Calm - N/A   Clear
6:37 AM 45.7 °F - 40.8 °F 83% 30.26 in 10.0 mi Calm Calm - N/A   Clear
6:55 AM 46.8 °F - 42.3 °F 84% 30.26 in 10.0 mi East 3.5 mph - N/A   Clear
6:56 AM 46.8 °F - 42.3 °F 84% 30.26 in 10.0 mi East 3.5 mph - N/A   Clear
7:15 AM 46.4 °F 45.2 °F 42.1 °F 85% 30.26 in 10.0 mi East 3.5 mph - N/A   Clear
7:16 AM 46.4 °F 45.2 °F 42.1 °F 85% 30.26 in 10.0 mi East 3.5 mph - N/A   Clear
7:35 AM 46.0 °F 44.8 °F 41.9 °F 85% 30.26 in 10.0 mi ESE 3.5 mph - N/A   Clear
7:58 AM 45.5 °F 44.2 °F 41.0 °F 84% 30.27 in 10.0 mi East 3.5 mph - N/A   Clear
8:16 AM 46.0 °F 44.8 °F 41.4 °F 84% 30.27 in 10.0 mi East 3.5 mph - N/A   Clear
8:35 AM 48.0 °F - 42.8 °F 82% 30.27 in 10.0 mi East 3.5 mph - N/A   Clear
8:36 AM 48.0 °F - 42.8 °F 82% 30.27 in 10.0 mi East 4.6 mph - N/A   Clear
8:55 AM 50.9 °F - 43.3 °F 75% 30.27 in 10.0 mi ESE 4.6 mph - N/A   Clear
9:19 AM 53.2 °F - 42.8 °F 68% 30.28 in 10.0 mi ESE 4.6 mph - N/A   Clear
9:37 AM 55.4 °F - 42.8 °F 63% 30.28 in 10.0 mi ESE 4.6 mph - N/A   Clear
9:55 AM 57.6 °F - 42.3 °F 57% 30.28 in 10.0 mi East 5.8 mph - N/A   Clear
10:15 AM 59.2 °F - 42.1 °F 53% 30.28 in 10.0 mi SE 6.9 mph - N/A   Clear
10:35 AM 59.9 °F - 39.4 °F 47% 30.28 in 10.0 mi ESE 8.1 mph - N/A   Clear
10:58 AM 61.2 °F - 41.5 °F 48% 30.28 in 10.0 mi SSE 4.6 mph - N/A   Clear
11:16 AM 62.4 °F - 41.4 °F 46% 30.28 in 10.0 mi SSE 5.8 mph - N/A   Clear
11:35 AM 63.1 °F - 40.1 °F 43% 30.28 in 10.0 mi SE 5.8 mph - N/A   Clear
11:36 AM 63.1 °F - 39.9 °F 42% 30.28 in 10.0 mi SSE 6.9 mph - N/A   Clear
11:55 AM 64.0 °F - 39.2 °F 40% 30.28 in 10.0 mi SE 5.8 mph - N/A   Clear
11:56 AM 64.0 °F - 39.4 °F 40% 30.28 in 10.0 mi SE 3.5 mph - N/A   Clear
12:19 PM 65.1 °F - 38.1 °F 37% 30.28 in 10.0 mi SE 5.8 mph - N/A   Clear
12:36 PM 64.9 °F - 36.0 °F 34% 30.27 in 10.0 mi ESE 3.5 mph - N/A   Clear
12:55 PM 66.2 °F - 37.4 °F 35% 30.26 in 10.0 mi South 3.5 mph - N/A   Clear
12:56 PM 66.2 °F - 36.9 °F 34% 30.26 in 10.0 mi Calm Calm - N/A   Clear
1:15 PM 66.7 °F - 36.1 °F 32% 30.26 in 10.0 mi Calm Calm - N/A   Clear
1:16 PM 66.6 °F - 36.0 °F 32% 30.26 in 10.0 mi Calm Calm - N/A   Clear
1:35 PM 67.1 °F - 36.1 °F 32% 30.25 in 10.0 mi Calm Calm - N/A   Clear
1:40 PM 67.1 °F - 36.1 °F 32% 30.25 in 10.0 mi Calm Calm - N/A   Clear
1:58 PM 67.5 °F - 36.3 °F 32% 30.24 in 10.0 mi Calm Calm - N/A   Clear
2:15 PM 68.0 °F - 34.5 °F 29% 30.23 in 10.0 mi Calm Calm - N/A   Clear
2:35 PM 69.3 °F - 34.9 °F 28% 30.22 in 10.0 mi ESE 3.5 mph - N/A   Clear
2:36 PM 69.1 °F - 35.1 °F 29% 30.22 in 10.0 mi ESE 3.5 mph - N/A   Clear
2:55 PM 68.2 °F - 35.4 °F 30% 30.21 in 10.0 mi Calm Calm - N/A   Clear
3:15 PM 68.5 °F - 35.2 °F 29% 30.21 in 10.0 mi Calm Calm - N/A   Clear
3:38 PM 69.4 °F - 36.0 °F 29% 30.20 in 10.0 mi Calm Calm - N/A   Clear
3:56 PM 69.1 °F - 35.1 °F 29% 30.20 in 10.0 mi SSW 3.5 mph - N/A   Clear
4:15 PM 69.8 °F - 33.8 °F 27% 30.20 in 10.0 mi Calm Calm - N/A   Clear
4:35 PM 69.3 °F - 35.1 °F 28% 30.19 in 10.0 mi East 4.6 mph - N/A   Clear
4:59 PM 69.6 °F - 34.5 °F 27% 30.19 in 10.0 mi ESE 5.8 mph - N/A   Clear
5:17 PM 69.1 °F - 34.5 °F 28% 30.19 in 10.0 mi East 3.5 mph - N/A   Clear
5:35 PM 68.5 °F - 34.3 °F 28% 30.19 in 10.0 mi NE 3.5 mph - N/A   Clear
5:36 PM 68.5 °F - 34.5 °F 29% 30.19 in 10.0 mi ENE 3.5 mph - N/A   Clear
5:55 PM 68.2 °F - 35.8 °F 30% 30.19 in 10.0 mi ENE 4.6 mph - N/A   Clear
6:15 PM 67.6 °F - 35.4 °F 30% 30.19 in 10.0 mi East 3.5 mph - N/A   Clear
6:37 PM 65.8 °F - 38.3 °F 36% 30.19 in 10.0 mi ENE 3.5 mph - N/A   Clear
6:56 PM 63.3 °F - 40.8 °F 44% 30.19 in 10.0 mi East 4.6 mph - N/A   Clear
7:15 PM 61.3 °F - 41.7 °F 49% 30.19 in 10.0 mi East 3.5 mph - N/A   Clear
7:35 PM 56.8 °F - 44.6 °F 64% 30.19 in 10.0 mi East 3.5 mph - N/A   Clear
7:59 PM 54.5 °F - 44.8 °F 70% 30.19 in 10.0 mi East 4.6 mph - N/A   Clear
8:17 PM 55.4 °F - 43.9 °F 65% 30.19 in 10.0 mi East 3.5 mph - N/A   Clear
8:36 PM 52.2 °F - 43.9 °F 73% 30.20 in 10.0 mi East 4.6 mph - N/A   Clear
8:55 PM 52.9 °F - 42.8 °F 69% 30.20 in 10.0 mi ESE 5.8 mph - N/A   Clear
9:15 PM 54.1 °F - 41.0 °F 61% 30.19 in 10.0 mi ESE 5.8 mph - N/A   Clear
9:38 PM 53.6 °F - 40.8 °F 62% 30.19 in 10.0 mi East 5.8 mph - N/A   Clear
9:56 PM 52.9 °F - 40.6 °F 63% 30.19 in 10.0 mi ESE 5.8 mph - N/A   Clear
10:15 PM 53.1 °F - 40.3 °F 62% 30.20 in 10.0 mi ESE 5.8 mph - N/A   Clear
10:16 PM 53.1 °F - 40.3 °F 62% 30.20 in 10.0 mi ESE 5.8 mph - N/A   Clear
10:35 PM 52.9 °F - 40.5 °F 63% 30.19 in 10.0 mi ESE 5.8 mph - N/A   Clear
10:36 PM 52.9 °F - 40.5 °F 63% 30.19 in 10.0 mi ESE 5.8 mph - N/A   Clear
10:59 PM 51.8 °F - 40.1 °F 64% 30.19 in 10.0 mi ESE 4.6 mph - N/A   Clear
11:16 PM 52.3 °F - 39.9 °F 63% 30.19 in 10.0 mi ESE 4.6 mph - N/A   Clear
11:35 PM 51.6 °F - 40.3 °F 65% 30.19 in 10.0 mi ESE 5.8 mph - N/A   Clear
11:36 PM 51.6 °F - 40.3 °F 65% 30.19 in 10.0 mi ESE 5.8 mph - N/A   Clear
11:55 PM 52.9 °F - 41.5 °F 65% 30.19 in 10.0 mi ESE 6.9 mph - N/A   Clear
11:56 PM 53.1 °F - 41.7 °F 65% 30.19 in 10.0 mi ESE 6.9 mph - N/A   Clear